Regional Weather Roundup
Issued by NWS

Home | Current Version | Previous Version | Graphics & Text | Print | Product List | Glossary On
Versions: 1 2 3 4 5 6 7 8 9 10 11 12 13 14 15 16 17 18 19 20 21 22 23 24 25 26 27 28 29 30 31 32 33 34 35 36 37 38 39 40 41 42 43 44 45 46 47 48 49 50
169
ASUS43 KMPX 110110
RWRMN
WEATHER ROUNDUP FOR MINNESOTA
NATIONAL WEATHER SERVICE TWIN CITIES/CHANHASSEN MN
700 PM CST WED FEB 10 2016


NOTE: "FAIR" INDICATES FEW OR NO CLOUDS BELOW 12,000 FEET WITH NO
SIGNIFICANT WEATHER AND/OR OBSTRUCTIONS TO VISIBILITY. N/A MEANS
CURRENT SKY AND/OR WEATHER CONDITIONS ARE NOT AVAILABLE.

MNZ060>063-068>070-110200-
   Twin Cities Metro

CITY           SKY/WX    TMP DP  RH WIND       PRES   REMARKS
TWIN CITIES    CLOUDY    11  -3  53 NE6       30.21R WCI   1
ST PAUL        CLOUDY    11  -3  53 N7        30.23R WCI   0
CRYSTAL        CLOUDY    11  -3  53 N6        30.21R WCI   1
BLAINE         CLOUDY    10   0  61 N8        30.21R WCI  -1
LAKEVILLE      CLOUDY     9  -2  61 NE7       30.18R WCI  -3
EDEN PRAIRIE   CLOUDY    13  -3  49 N7        30.19R WCI   3
SOUTH ST PAUL  CLOUDY    11  -4  51 N3        30.21R
LAKE ELMO      CLOUDY    10  -2  56 N5        30.21R WCI   2
$$
MNZ001>005-007-008-013>017-022>024-027-028-110200-
   Northwest Minnesota

CITY           SKY/WX    TMP DP  RH WIND       PRES   REMARKS
BEMIDJI        CLOUDY     2  -7  67 N5        30.20R WCI  -8
HALLOCK        CLEAR      3  -4  72 N7        30.30R WCI  -9
ROSEAU         CLOUDY    -4 -11  71 CALM      30.28S
WARROAD        CLOUDY    -8 -13  77 CALM      30.26S
THIEF RVR FALL CLOUDY     7  -6  56 N6        30.26R WCI  -3
CROOKSTON      PTCLDY     9   0  66 N7        30.29R WCI  -3
FOSSTON        CLOUDY     1  -6  71 NE3       30.23S
DETROIT LAKES  CLOUDY    10   3  72 N6        30.21R WCI   1
MOORHEAD       CLOUDY    10   0  61 N9        30.26R WCI  -2
PARK RAPIDS    CLOUDY     9  -5  53 N7        30.18R WCI  -2
MAHNOMEN       CLOUDY     6  -1  73 N9        30.22R WCI  -8
$$
MNZ006-009>011-018-025>026-110200-
   North Central Minnesota

CITY           SKY/WX    TMP DP  RH WIND       PRES   REMARKS
BAUDETTE       CLOUDY   -10 -18  67 CALM      30.25R
FLAG ISLAND    CLEAR     -8 -13  77 SW3       30.25R
INTL FALLS     CLOUDY   -12 -17  78 CALM      30.22R
WASKISH        CLOUDY     0  -9  65 N3        30.24R
BIG FORK       CLEAR      0 -11  60 N2        30.20
LONGVILLE      CLOUDY     3  -8  60 CALM      30.20R
GRAND RAPIDS   CLOUDY     3  -9  55 N6        30.17S WCI  -8
CRANE LAKE     CLEAR    -13 -17  84 CALM      30.23R
ORR            CLEAR     -8 -15  71 CALM      30.17R
COOK           CLEAR     -2 -11  65 CALM      30.19R
WALKER         CLOUDY     5  -6  61 N6        30.21R WCI  -6
$$
MNZ012-019>021-037-110200-
   Northeast Minnesota

CITY           SKY/WX    TMP DP  RH WIND       PRES   REMARKS
DULUTH         PTCLDY     3  -9  57 NW9       30.14R WCI -12
ELY            CLEAR     -9 -13  84 NW5       30.16R WCI -21
HIBBING        CLEAR     -6 -11  79 NW5       30.17R WCI -17
EVELETH        CLEAR     -4  -9  77 CALM      30.18R
DULUTH HARBOR  PTCLDY    10  -6  48 NW9       30.22R WCI  -2
TWO HARBORS    CLEAR      7  -6  56 CALM      30.15R
SILVER BAY     CLEAR      1  -6  71 CALM      30.15R
GRAND MARAIS     N/A      4  -7  60 CALM      30.18R
G MARAIS ARPRT CLEAR     -4 -11  71 NW13G18   30.05R WCI -23
$$
MNZ029>031-032-039>041-046>048-054>057-064-110200-
   West Central Minnesota

CITY           SKY/WX    TMP DP  RH WIND       PRES   REMARKS
FERGUS FALLS   CLOUDY    12   0  57 NE5       30.25R WCI   4
WHEATON        CLOUDY    12   7  79 W3        30.25R
MORRIS         CLOUDY    12   3  67 NW3       30.20R
ALEXANDRIA     CLOUDY    11  -2  56 N8        30.18R WCI  -1
ELBOW LAKE     CLOUDY    12   2  63 N7        30.21R WCI   2
WADENA         CLOUDY     9  -2  61 NE5       30.19R WCI   0
GLENWOOD       CLOUDY    10   1  67 N5        30.19R WCI   2
APPLETON       CLOUDY    14   7  73 N6        30.22R WCI   5
BENSON         CLOUDY    12   1  62 CALM      30.21R
ORTONVILLE     CLOUDY    10   5  79 N5        30.21R WCI   2
MADISON        CLOUDY    14   7  73 CALM      30.22R
WILLMAR        CLOUDY    14   5  67 N10       30.20R WCI   1
$$
MNZ033>034-036-042>043-049>051-058-059-110200-
   Central Minnesota

CITY           SKY/WX    TMP DP  RH WIND       PRES   REMARKS
ST CLOUD       CLOUDY    11  -3  53 N7        30.20R WCI   0
SAUK CENTRE    CLOUDY    10  -2  56 N3        30.20R
PAYNESVILLE    CLOUDY    10   0  63 N6        30.20R WCI   1
AITKIN         CLOUDY     7  -9  47 NW5       30.18R WCI  -2
PINE RIVER     CLOUDY     7  -6  56 N7        30.23R WCI  -5
BRAINERD       CLOUDY     8  -5  55 NW7       30.20R WCI  -3
STAPLES        CLOUDY     9  -6  52 N6        30.20R WCI  -1
LONG PRAIRIE   CLOUDY    10  -2  56 N6        30.19R WCI   1
LITTLE FALLS   CLOUDY    10  -6  48 CALM      30.21R
LITCHFIELD     CLOUDY    12   1  62 N5        30.19R WCI   4
BUFFALO        CLOUDY    11  -4  50 N5        30.22R WCI   3
MAPLE LAKE     CLOUDY    12  -1  55 NE3       30.21R
$$
MNZ037-044-045-052-053-110200-
   East Central Minnesota

CITY           SKY/WX    TMP DP  RH WIND       PRES   REMARKS
PRINCETON      CLOUDY    10  -2  56 CALM      30.20R
MORA           CLOUDY     9  -4  56 CALM      30.21R
CAMBRIDGE      CLOUDY     9  -2  61 CALM      30.19R
RUSH CITY      CLOUDY     7  -4  58 CALM      30.21R
MOOSE LAKE     PTCLDY     9  -9  43 CALM      30.17R
HINCKLEY       FAIR       5  -4  66 CALM      30.19R
CLOQUET        CLEAR      5 -11  47 NW8       30.16R WCI  -8
MCGREGOR       CLOUDY     7  -6  56 N7        30.19R WCI  -5
$$
MNZ071>073-080-081-089-090-097-098-110200-
   Southwest Minnesota

CITY           SKY/WX    TMP DP  RH WIND       PRES   REMARKS
MONTEVIDEO     CLOUDY    12   7  79 CALM      30.22R
GRANITE FALLS  CLOUDY    15   9  78 CALM      30.22R
CANBY          CLOUDY    15  11  82 NE3       30.21R
MARSHALL       FLURRIES  12   6  77 NE3       30.20R
REDWOOD FALLS  CLOUDY    13   2  61 CALM      30.20R
OLIVIA         CLOUDY    16   5  62 CALM      30.19R
PIPESTONE      CLOUDY    12   1  62 E9        30.12R WCI   0
WINDOM         CLOUDY    10   3  72 CALM      30.15R
WORTHINGTON    CLOUDY     9   3  78 E8        30.14R WCI  -4
JACKSON        CLOUDY    12   3  67 NE6       30.15R WCI   3
TRACY          CLOUDY    12   7  79 N3        30.18R
SLAYTON        CLOUDY    10   6  86 NE6       30.14R WCI   0
$$
MNZ065>067-074>077-082>085-091>093-110200-
   South Central Minnesota

CITY           SKY/WX    TMP DP  RH WIND       PRES   REMARKS
MANKATO        CLOUDY    12   0  57 NE7       30.17R WCI   2
NEW ULM        CLOUDY    12   1  62 NE6       30.19R WCI   3
ST JAMES       CLOUDY     9   1  72 N3        30.19R
FAIRMONT       CLOUDY     7  -4  61 CALM      30.15R
GLENCOE        CLOUDY    13   2  61 N6        30.19R WCI   4
FARIBAULT        N/A      9   0  66 N3        30.18R
OWATONNA       CLOUDY     9   0  66 NE6       30.16R WCI  -1
WASECA         CLOUDY    12   3  67 N5        30.18R WCI   4
ALBERT LEA     CLOUDY    10   1  67 NE7       30.14R WCI   0
$$
MNZ078>079-086>088-094>096-110200-
   Southeast Minnesota

CITY           SKY/WX    TMP DP  RH WIND       PRES   REMARKS
ROCHESTER      CLOUDY     7  -4  60 N8        30.13R WCI  -6
RED WING       CLOUDY     9  -4  56 NW3       30.20R
STANTON        CLOUDY    10  -2  60 CALM      30.18R
DODGE CENTER   CLOUDY     7  -4  61 N9        30.13R WCI  -7
WINONA         PTCLDY    10   0  61 N3        30.20R
AUSTIN         CLOUDY     7   0  72 N3        30.14R
PRESTON        CLOUDY     4  -4  69 N6        30.13R WCI  -7
$$
ABBREVIATIONS USED IN REMARKS
   TC - TEMPERATURES IN CELSIUS
  WCI - WIND CHILL INDEX
   HX - HEAT INDEX
  VSB - VISIBILITY
$$




USA.gov is the U.S. government's official web portal to all federal, state and local government web resources and services.